Tracking 19570 objects as of 22-Feb-2019
HD Live streaming from Space Station
objects crossing your sky now

COSMOS 1823 DEB

Track COSMOS 1823 DEB now!
10-day predictions


NORAD ID: 18727
Int'l Code: 1987-020E
Perigee: 1,341.6 km
Apogee: 1,479.5 km
Inclination: 73.4 °
Period: 113.9 minutes
Semi major axis: 7781 km
RCS: 0.1915 m2 (medium)
Launch date: February 20, 1987
Source: Commonwealth of Independent States (former USSR) (CIS)
Launch site: PLESETSK MISSILE AND SPACE COMPLEX (PKMTR)

Note: This is SATELLITE DEBRIS
aabbcc
Your satellite tracking list
Your tracking list is empty




NASA's NSSDC Master Catalog

Two Line Element Set (TLE):
1 18727U 87020E   19052.49765916 +.00000013 +00000-0 +17815-3 0  9995
2 18727 073.3579 213.9532 0088610 253.0407 163.0889 12.64754158438867
Source of the keplerian elements: AFSPC